ARIANE 42P DEB, 44507

Orbit data source: Space-Track

ARIANE 42P DEB, 44507 is space debris in LEO originally from a launch on Mon, 10 Aug 1992 UTC launched from the French Guiana (FRGUI). Debris objects in space refer to the collection of defunct objects orbiting the Earth. Examples of debris include non-operational satellites, rocket bodies, and fragments generated from explosions, collisions, or faulty payload assembly.

Loading next visibility...
Identifier
44507, 1992-052E
Orbit
LEO
Last TLE update
15 hours ago
Origin
Manufacturer
ArianeGroup
Mission
Spacecraft
Bus & Motor
Unknown
Mass
Unknown
Launch date (UTC)
1992-08-10 (33 years ago)
Launch vehicle
Unknown
Launch site
French Guiana (FRGUI)
Object type
Payload
Rocket body
Debris
Shape & HBR
Unknown
Radar Cross Section
Small (<0.1 m²)

Expand to show TLE details & history

TLE from 15 hours ago
0 ARIANE 42P DEB
1 44507U 92052E   25132.90988476  .00000686  00000-0  28373-2 0  9997
2 44507  66.0054 354.8692 0144162 114.2690 247.3465 12.87362709269330
Epoch: 2025-05-12T21:50Z
Definitive object data (Epoch: 2025-05-12T21:50:14.043Z)
Latitude
-0.00001°
Longitude
156.39449°
Altitude
1,357.977 km
Speed
7.159 km/s
True Right ascension
23h 39m 28s
True Declination
0° 00' 00"
Sunlit
Object was in daylight at TLE epoch
Visualization TLE readout
Latitude
-59.99412°
Longitude
105.03437°
Altitude
1,444.67 km
Speed
7.088 km/s
Apparent Right ascension
10h 46m 28s
Apparent Declination
-83° 48' 11"
Sunlit
Object is in daylight
Visualization observer readout
Local Sidereal Time
20:48:05
Azimuth
184.341° SSW
Elevation
-45.227°
Doppler factor
1
Orbital elements
Apogee altitude
1,421.412 km
Perigee altitude
1,199.728 km
Semi-major axis
7,688.707 km
Eccentricity
0.0144162
Inclination
66.0054°
RAAN
354.8692°
Arg. of periapsis
114.269°
True anomaly
245.83266°
Mean anomaly
247.3465°
Eccentric anomaly
246.58851°
Mean motion
3.21931 °/min
BSTAR
0.0028373
Orbital period
111.83 mins
Loading maneuver chart data...
Loading SW <> Apogee altitude chart data...
Loading historical data...
Loading historical data...
Loading historical data...
Loading historical data...
Loading historical data...
Loading historical data...
Loading historical data...

ARIANE 42P DEB Visibility forecast

Observer location: undefined°, undefined°

Span
Click to sort rows by Start time (UTC) header in descending order
Start Az.
Max El. time (UTC)
Max El. Az.
Max El.
End time (UTC)
End Az.
10 mins2025-05-13 14:43:30.591Z144.537° SSE2025-05-13 14:48:30.591Z104.027° ESE18.82°2025-05-13 14:53:30.591Z62.243° ENE
14 mins2025-05-13 16:36:30.591Z213.579° SW2025-05-13 16:43:30.591Z347.112° N44.272°2025-05-13 16:50:30.591Z28.603° NE
9 mins2025-05-13 18:35:30.591Z285.912° WNW2025-05-13 18:39:30.591Z322.561° NNW19.702°2025-05-13 18:44:30.591Z6.526° NNE
4 mins2025-05-13 22:36:30.591Z10.605° NNE2025-05-13 22:38:30.591Z27.204° NE11.971°2025-05-13 22:40:30.591Z43.517° NE
12 mins2025-05-14 00:30:30.591Z347.037° N2025-05-14 00:35:30.591Z44.417° NE34.065°2025-05-14 00:42:30.591Z119.515° SE
12 mins2025-05-14 02:25:30.591Z311.363° NW2025-05-14 02:31:30.591Z240.213° WSW33.009°2025-05-14 02:37:30.591Z184.371° SSW
|